DW7980 Weather Reports


Display with metric or nautical units.
time (UTC)temp
F
wind
direction
speed
MPH
gust
MPH
rain 1hr
in
rain 24hr
in
rain mn
in
humidity
%
barometer
mb
20260508073052 51 0 0.0 0.0 0.00 0.00 0.00 80 1017.1
20260508072538 51 0 0.0 0.0 0.00 0.00 0.00 80 1017.1
20260508072038 51 0 0.0 0.0 0.00 0.00 0.00 79 1017.1
20260508071550 51 0 0.0 0.0 0.00 0.00 0.00 79 1017.1
20260508071037 51 0 0.0 0.0 0.00 0.00 0.00 79 1017.0
20260508070536 51 0 0.0 0.0 0.00 0.00 0.00 79 1017.1
20260508070053 52 0 0.0 0.0 0.00 0.00 0.00 79 1017.1
20260508065539 52 0 0.0 0.0 0.00 0.00 0.00 78 1017.2
20260508065039 52 0 0.0 0.0 0.00 0.00 0.00 77 1017.1
20260508064556 52 0 0.0 0.0 0.00 0.00 0.00 77 1017.1
20260508064038 52 0 0.0 0.0 0.00 0.00 0.00 76 1017.2
20260508063537 52 0 0.0 0.0 0.00 0.00 0.00 76 1017.2
20260508063051 53 0 0.0 0.0 0.00 0.00 0.00 75 1017.2
20260508062538 53 0 0.0 0.0 0.00 0.00 0.00 75 1017.2
20260508062038 53 0 0.0 0.0 0.00 0.00 0.00 75 1017.2
20260508061549 53 0 0.0 0.0 0.00 0.00 0.00 75 1017.3
20260508061038 53 0 0.0 0.0 0.00 0.00 0.00 75 1017.3
20260508060538 53 0 0.0 0.0 0.00 0.00 0.00 74 1017.2
20260508060049 54 0 0.0 0.0 0.00 0.00 0.00 74 1017.2
20260508055539 54 0 0.0 0.0 0.00 0.00 0.00 73 1017.2
20260508055039 54 0 0.0 0.0 0.00 0.00 0.00 73 1017.2
20260508054549 54 0 0.0 0.0 0.00 0.00 0.00 73 1017.1
20260508054042 54 0 0.0 0.0 0.00 0.00 0.00 73 1017.1
20260508053539 54 0 0.0 0.0 0.00 0.00 0.00 72 1017.2
20260508053055 54 0 0.0 0.0 0.00 0.00 0.00 72 1017.2
20260508052538 55 0 0.0 0.0 0.00 0.00 0.00 72 1017.2
20260508052037 55 0 0.0 0.0 0.00 0.00 0.00 72 1017.1
20260508051602 55 0 0.0 0.0 0.00 0.00 0.00 70 1017.2
20260508051039 55 0 0.0 0.0 0.00 0.00 0.00 69 1017.1
20260508050538 55 0 0.0 0.0 0.00 0.00 0.00 71 1017.1
20260508045537 56 0 0.0 0.0 0.00 0.00 0.00 72 1017.1
20260508045041 56 0 0.0 0.0 0.00 0.00 0.00 71 1017.1
20260508044555 56 0 0.0 0.0 0.00 0.00 0.00 70 1017.1
20260508044039 57 0 0.0 0.0 0.00 0.00 0.00 68 1017.1
20260508043539 57 0 0.0 0.0 0.00 0.00 0.00 70 1017.0
20260508043049 57 0 0.0 0.0 0.00 0.00 0.00 69 1017.0
20260508042541 57 0 0.0 0.0 0.00 0.00 0.00 68 1016.8
20260508042039 58 0 0.0 0.0 0.00 0.00 0.00 68 1016.8
20260508041546 58 0 0.0 0.0 0.00 0.00 0.00 67 1016.8
20260508041039 58 0 0.0 0.0 0.00 0.00 0.00 67 1016.9
20260508040542 58 0 0.0 0.0 0.00 0.00 0.00 67 1016.8
20260508040054 59 0 0.0 0.0 0.00 0.00 0.00 67 1016.8
20260508035538 59 0 0.0 0.0 0.00 0.00 0.00 66 1016.8
20260508035038 60 0 0.0 0.0 0.00 0.00 0.00 65 1016.7
20260508034546 60 0 0.0 0.0 0.00 0.00 0.00 64 1016.8
20260508034041 60 0 0.0 0.0 0.00 0.00 0.00 63 1016.7
20260508033538 61 0 0.0 0.0 0.00 0.00 0.00 63 1016.5
20260508033048 61 0 0.0 0.0 0.00 0.00 0.00 62 1016.5
20260508032539 61 0 0.0 0.0 0.00 0.00 0.00 61 1016.5
20260508032039 62 0 0.0 0.0 0.00 0.00 0.00 61 1016.4
20260508031548 62 0 0.0 0.0 0.00 0.00 0.00 59 1016.3
20260508031041 62 0 0.0 0.0 0.00 0.00 0.00 58 1016.3
20260508030538 63 0 0.0 0.0 0.00 0.00 0.00 56 1016.3
20260508030054 63 0 0.0 0.0 0.00 0.00 0.00 54 1016.3
20260508025539 63 0 0.0 0.0 0.00 0.00 0.00 56 1016.3
20260508025039 63 0 0.0 0.0 0.00 0.00 0.00 51 1016.4
20260508024549 64 0 0.0 0.0 0.00 0.00 0.00 52 1016.3
20260508024040 64 0 0.0 1.0 0.00 0.00 0.00 49 1016.4
20260508023541 64 0 0.0 1.0 0.00 0.00 0.00 48 1016.3
20260508023050 64 0 0.0 0.0 0.00 0.00 0.00 47 1016.4
20260508022538 65 0 0.0 0.0 0.00 0.00 0.00 45 1016.4
20260508022041 65 0 0.0 1.0 0.00 0.00 0.00 46 1016.4
20260508021548 65 0 0.0 1.0 0.00 0.00 0.00 44 1016.4
20260508021040 65 0 0.0 0.0 0.00 0.00 0.00 45 1016.4
20260508020542 65 0 0.0 1.0 0.00 0.00 0.00 44 1016.5
20260508020054 65 0 0.0 1.0 0.00 0.00 0.00 44 1016.6
20260508015540 65 0 0.0 1.0 0.00 0.00 0.00 44 1016.7
20260508015038 65 0 0.0 2.0 0.00 0.00 0.00 44 1016.8
20260508014548 65 209 0.0 2.0 0.00 0.00 0.00 45 1016.8
20260508014044 65 0 0.0 2.0 0.00 0.00 0.00 43 1016.8
20260508013538 65 0 0.0 2.0 0.00 0.00 0.00 43 1016.8
20260508013050 66 209 0.0 3.0 0.00 0.00 0.00 44 1016.8
20260508012539 66 0 0.0 3.0 0.00 0.00 0.00 44 1016.9
20260508012038 66 0 0.0 2.0 0.00 0.00 0.00 42 1016.9
20260508011550 66 0 0.0 2.0 0.00 0.00 0.00 41 1016.9
20260508011035 66 211 0.0 2.0 0.00 0.00 0.00 41 1017.0
20260508010538 66 211 0.0 3.0 0.00 0.00 0.00 41 1017.1
20260508010051 67 218 1.0 3.0 0.00 0.00 0.00 40 1017.1
20260508005537 67 265 1.0 5.0 0.00 0.00 0.00 41 1017.2
20260508005038 67 0 1.0 6.0 0.00 0.00 0.00 39 1017.2
20260508004552 68 180 1.0 6.0 0.00 0.00 0.00 40 1017.2
20260508004039 68 0 0.0 4.0 0.00 0.00 0.00 40 1017.3
20260508003540 68 0 0.0 4.0 0.00 0.00 0.00 38 1017.3
20260508003051 69 173 1.0 4.0 0.00 0.00 0.00 37 1017.3
20260508002537 69 181 0.0 4.0 0.00 0.00 0.00 36 1017.4
20260508002038 69 0 0.0 6.0 0.00 0.00 0.00 36 1017.4
20260508001549 69 179 2.0 6.0 0.00 0.00 0.00 37 1017.4
20260508001038 69 245 1.0 6.0 0.00 0.00 0.00 39 1017.4
20260508000537 69 198 1.0 6.0 0.00 0.00 0.00 39 1017.4
20260508000058 69 94 0.0 3.0 0.00 0.00 0.00 39 1017.5
20260507235536 68 119 1.0 3.0 0.00 0.00 0.00 41 1017.4
20260507235040 68 0 0.0 6.0 0.00 0.00 0.00 44 1017.5
20260507234552 68 169 1.0 6.0 0.00 0.00 0.00 41 1017.5
20260507234039 68 173 1.0 6.0 0.00 0.00 0.00 43 1017.6
20260507233538 68 154 2.0 6.0 0.00 0.00 0.00 37 1017.6
20260507233109 69 0 0.0 5.0 0.00 0.00 0.00 41 1017.6
20260507232537 69 0 1.0 5.0 0.00 0.00 0.00 46 1017.7
20260507232042 69 186 0.0 3.0 0.00 0.00 0.00 39 1017.7
20260507231549 69 85 1.0 2.0 0.00 0.00 0.00 45 1017.7
20260507231038 69 99 0.0 3.0 0.00 0.00 0.00 42 1017.7
20260507230539 70 0 1.0 3.0 0.00 0.00 0.00 37 1017.8
20260507230050 71 42 1.0 3.0 0.00 0.00 0.00 45 1017.7
20260507225539 71 38 0.0 4.0 0.00 0.00 0.00 44 1017.9
20260507225039 71 38 1.0 4.0 0.00 0.00 0.00 48 1018.1
20260507224550 71 78 1.0 5.0 0.00 0.00 0.00 46 1018.0
20260507224037 71 167 1.0 5.0 0.00 0.00 0.00 45 1018.1
20260507223538 71 0 0.0 5.0 0.00 0.00 0.00 47 1018.2
20260507223058 72 0 0.0 3.0 0.00 0.00 0.00 45 1018.3
20260507222536 71 107 0.0 3.0 0.00 0.00 0.00 48 1018.3
20260507222038 71 107 1.0 3.0 0.00 0.00 0.00 45 1018.3
20260507221547 71 340 0.0 2.0 0.00 0.00 0.00 51 1018.2
20260507221037 71 198 0.0 4.0 0.00 0.00 0.00 47 1018.3
20260507220537 71 68 1.0 5.0 0.00 0.00 0.00 49 1018.3
20260507220046 71 63 1.0 5.0 0.00 0.00 0.00 45 1018.2
20260507215538 71 0 0.0 3.0 0.00 0.00 0.00 46 1018.3
20260507215038 70 70 1.0 8.0 0.00 0.00 0.00 46 1018.3
20260507214549 70 238 0.0 8.0 0.00 0.00 0.00 48 1018.5
20260507214042 70 202 3.0 8.0 0.00 0.00 0.00 46 1018.6
20260507213539 70 43 1.0 7.0 0.00 0.00 0.00 49 1018.7
20260507213047 69 148 1.0 7.0 0.00 0.00 0.00 52 1018.7
20260507212541 69 82 2.0 7.0 0.00 0.00 0.00 50 1018.8
20260507212041 68 14 2.0 7.0 0.00 0.00 0.00 50 1018.9
20260507211556 68 129 2.0 6.0 0.00 0.00 0.00 51 1019.0
20260507211037 68 0 1.0 4.0 0.00 0.00 0.00 54 1019.1
20260507210539 68 60 3.0 7.0 0.00 0.00 0.00 50 1019.1
20260507210105 67 56 2.0 7.0 0.00 0.00 0.00 56 1019.1
20260507205539 66 107 1.0 7.0 0.00 0.00 0.00 53 1019.2
20260507205038 66 11 0.0 5.0 0.00 0.00 0.00 58 1019.2
20260507204549 66 148 1.0 5.0 0.00 0.00 0.00 54 1019.3
20260507204037 65 156 1.0 7.0 0.00 0.00 0.00 55 1019.2
20260507203537 66 187 2.0 7.0 0.00 0.00 0.00 54 1019.4
20260507203045 67 150 2.0 5.0 0.00 0.00 0.00 53 1019.4
20260507202536 67 87 0.0 5.0 0.00 0.00 0.00 58 1019.5
20260507202037 67 86 0.0 5.0 0.00 0.00 0.00 61 1019.6
20260507201547 66 49 2.0 6.0 0.00 0.00 0.00 61 1019.6
20260507201039 65 0 2.0 6.0 0.00 0.00 0.00 62 1019.5
20260507200541 64 289 1.0 10.0 0.00 0.00 0.00 58 1019.6
20260507200054 63 250 1.0 10.0 0.00 0.00 0.00 60 1019.7
20260507195541 64 173 1.0 7.0 0.00 0.00 0.00 59 1019.6
20260507195041 64 159 1.0 7.0 0.00 0.00 0.00 61 1019.7
20260507194555 65 159 2.0 7.0 0.00 0.00 0.00 57 1019.8
20260507194039 65 0 1.0 4.0 0.00 0.00 0.00 57 1019.9
20260507193542 65 131 1.0 3.0 0.00 0.00 0.00 60 1019.9
20260507193050 65 124 1.0 3.0 0.00 0.00 0.00 60 1019.9
20260507192539 64 29 2.0 4.0 0.00 0.00 0.00 64 1020.0
20260507192039 63 0 1.0 4.0 0.00 0.00 0.00 66 1020.0
20260507191552 63 0 1.0 4.0 0.00 0.00 0.00 62 1020.2
20260507191039 63 180 1.0 5.0 0.00 0.00 0.00 62 1020.3
20260507190539 62 42 1.0 6.0 0.00 0.00 0.00 64 1020.3
20260507190056 62 186 2.0 6.0 0.00 0.00 0.00 65 1020.4
20260507185538 62 159 3.0 6.0 0.00 0.00 0.00 61 1020.5
20260507185038 62 44 1.0 5.0 0.00 0.00 0.00 64 1020.6
20260507184550 62 0 1.0 5.0 0.00 0.00 0.00 64 1020.6
20260507184042 62 167 1.0 5.0 0.00 0.00 0.00 63 1020.6
20260507183538 62 5 2.0 5.0 0.00 0.00 0.00 65 1020.6
20260507183112 62 115 0.0 5.0 0.00 0.00 0.00 62 1020.6
20260507182539 62 184 1.0 5.0 0.00 0.00 0.00 63 1020.6
20260507182039 62 168 1.0 5.0 0.00 0.00 0.00 66 1020.7
20260507181551 61 69 0.0 6.0 0.00 0.00 0.00 66 1020.7
20260507181038 61 182 2.0 6.0 0.00 0.00 0.00 62 1020.9
20260507180540 62 325 1.0 4.0 0.00 0.00 0.00 60 1020.9
20260507180052 62 5 1.0 4.0 0.00 0.00 0.00 65 1020.9
20260507175538 61 0 1.0 5.0 0.00 0.00 0.00 65 1020.9
20260507175038 61 184 1.0 5.0 0.00 0.00 0.00 63 1021.0
20260507174600 62 350 2.0 5.0 0.00 0.00 0.00 63 1021.1
20260507174042 61 43 1.0 4.0 0.00 0.00 0.00 66 1021.1
20260507173538 60 75 1.0 4.0 0.00 0.00 0.00 66 1021.1
20260507173050 60 0 2.0 5.0 0.00 0.00 0.00 65 1021.1
20260507172543 60 86 1.0 5.0 0.00 0.00 0.00 66 1021.1
20260507172038 60 59 3.0 5.0 0.00 0.00 0.00 65 1021.0
20260507171548 60 20 1.0 4.0 0.00 0.00 0.00 67 1021.0
20260507171040 59 311 0.0 4.0 0.00 0.00 0.00 68 1021.1
20260507170540 59 89 1.0 4.0 0.00 0.00 0.00 66 1021.1
20260507170047 58 101 1.0 4.0 0.00 0.00 0.00 68 1021.1
20260507165541 57 48 1.0 3.0 0.00 0.00 0.00 70 1021.1
20260507165041 57 0 0.0 3.0 0.00 0.00 0.00 70 1021.0
20260507164615 56 50 0.0 3.0 0.00 0.00 0.00 73 1021.1
20260507164041 55 0 1.0 4.0 0.00 0.00 0.00 72 1021.1
20260507163540 55 72 0.0 4.0 0.00 0.00 0.00 71 1021.0
20260507163054 55 48 1.0 4.0 0.00 0.00 0.00 74 1021.1
20260507162538 55 63 2.0 4.0 0.00 0.00 0.00 73 1021.0
20260507162040 55 67 1.0 3.0 0.00 0.00 0.00 72 1021.1
20260507161556 55 67 1.0 3.0 0.00 0.00 0.00 73 1021.1
20260507161039 54 67 1.0 4.0 0.00 0.00 0.00 74 1021.1
20260507160541 54 67 1.0 4.0 0.00 0.00 0.00 73 1021.2
20260507160051 54 62 1.0 4.0 0.00 0.00 0.00 74 1021.1
20260507155540 54 62 1.0 4.0 0.00 0.00 0.00 73 1021.1
20260507155040 54 53 2.0 4.0 0.00 0.00 0.00 73 1021.1
20260507154556 54 25 1.0 3.0 0.00 0.00 0.00 74 1021.2
20260507154042 54 25 1.0 3.0 0.00 0.00 0.00 74 1021.2
20260507153542 54 0 1.0 3.0 0.00 0.00 0.00 74 1021.2
20260507153049 53 303 1.0 3.0 0.00 0.00 0.00 75 1021.2
20260507152543 53 303 0.0 3.0 0.00 0.00 0.00 75 1021.3
20260507152041 53 0 0.0 2.0 0.00 0.00 0.00 76 1021.3
20260507151550 53 0 0.0 2.0 0.00 0.00 0.00 77 1021.2
20260507151042 53 0 0.0 2.0 0.00 0.00 0.00 77 1021.3
20260507150538 52 0 0.0 3.0 0.00 0.00 0.00 77 1021.2
20260507150053 52 59 1.0 3.0 0.00 0.00 0.00 76 1021.2
20260507145540 52 0 0.0 3.0 0.00 0.00 0.00 78 1021.2
20260507145037 52 0 1.0 3.0 0.00 0.00 0.00 77 1021.3
20260507144549 52 59 0.0 3.0 0.00 0.00 0.00 77 1021.2
20260507144040 52 0 0.0 0.0 0.00 0.00 0.00 77 1021.2
20260507143540 52 0 0.0 0.0 0.00 0.00 0.00 79 1021.2
20260507143056 51 0 0.0 0.0 0.00 0.00 0.00 78 1021.1
20260507142540 51 0 0.0 0.0 0.00 0.00 0.00 78 1021.1
20260507142040 51 0 0.0 0.0 0.00 0.00 0.00 79 1021.1
20260507141545 51 0 0.0 0.0 0.00 0.00 0.00 78 1021.0
20260507141040 51 0 0.0 0.0 0.00 0.00 0.00 79 1021.1
20260507140540 51 0 0.0 0.0 0.00 0.00 0.00 79 1021.0
20260507140053 51 0 0.0 0.0 0.00 0.00 0.00 79 1021.1
20260507135540 51 0 0.0 0.0 0.00 0.00 0.00 79 1021.0
20260507135038 51 0 0.0 0.0 0.00 0.00 0.00 79 1021.1
20260507134550 51 0 0.0 0.0 0.00 0.00 0.00 79 1020.9
20260507134039 51 0 0.0 0.0 0.00 0.00 0.00 79 1020.9
20260507133540 51 0 0.0 0.0 0.00 0.00 0.00 79 1020.9
20260507133052 51 0 0.0 0.0 0.00 0.00 0.00 79 1020.9
20260507132541 51 0 0.0 0.0 0.00 0.00 0.00 79 1020.9
20260507132037 51 0 0.0 0.0 0.00 0.00 0.00 79 1020.9
20260507131548 51 0 0.0 0.0 0.00 0.00 0.00 79 1020.9
20260507131039 51 0 0.0 0.0 0.00 0.00 0.00 79 1020.9
20260507130543 51 0 0.0 0.0 0.00 0.00 0.00 79 1020.9
20260507130054 51 0 0.0 0.0 0.00 0.00 0.00 79 1020.9
20260507125541 51 0 0.0 0.0 0.00 0.00 0.00 80 1020.9
20260507125038 51 0 0.0 0.0 0.00 0.00 0.00 80 1020.9
20260507124559 51 0 0.0 0.0 0.00 0.00 0.00 80 1020.9
20260507124041 51 0 0.0 0.0 0.00 0.00 0.00 80 1021.0
20260507123538 51 0 0.0 0.0 0.00 0.00 0.00 80 1020.9
20260507123051 52 0 0.0 0.0 0.00 0.00 0.00 80 1021.0
20260507122540 52 0 0.0 0.0 0.00 0.00 0.00 80 1020.9
20260507122040 52 0 0.0 0.0 0.00 0.00 0.00 80 1020.9
20260507121551 52 0 0.0 0.0 0.00 0.00 0.00 80 1020.9
20260507121039 52 0 0.0 0.0 0.00 0.00 0.00 79 1021.0
20260507120542 52 0 0.0 0.0 0.00 0.00 0.00 79 1021.0
20260507120053 52 0 0.0 0.0 0.00 0.00 0.00 79 1021.1
20260507115541 52 0 0.0 0.0 0.00 0.00 0.00 80 1021.1
20260507115044 52 0 0.0 0.0 0.00 0.00 0.00 80 1021.1
20260507114605 52 0 0.0 0.0 0.00 0.00 0.00 79 1021.1
20260507114038 52 0 0.0 0.0 0.00 0.00 0.00 80 1021.1
20260507113539 52 0 0.0 0.0 0.00 0.00 0.00 80 1021.2
20260507113117 52 0 0.0 0.0 0.00 0.00 0.00 80 1021.1
20260507112538 52 0 0.0 0.0 0.00 0.00 0.00 80 1021.2
20260507112045 52 0 0.0 0.0 0.00 0.00 0.00 80 1021.3
20260507111550 52 0 0.0 0.0 0.00 0.00 0.00 80 1021.3
20260507111038 52 0 0.0 0.0 0.00 0.00 0.00 80 1021.2
20260507110541 52 0 0.0 0.0 0.00 0.00 0.00 80 1021.3
20260507110043 52 0 0.0 0.0 0.00 0.00 0.00 79 1021.3
20260507105538 52 0 0.0 0.0 0.00 0.00 0.00 80 1021.4
20260507105041 53 0 0.0 0.0 0.00 0.00 0.00 80 1021.3
20260507104552 53 0 0.0 0.0 0.00 0.00 0.00 80 1021.3
20260507104037 53 0 0.0 0.0 0.00 0.00 0.00 80 1021.4
20260507103538 53 0 0.0 0.0 0.00 0.00 0.00 79 1021.4
20260507103054 53 0 0.0 0.0 0.00 0.00 0.00 80 1021.5
20260507102543 53 0 0.0 0.0 0.00 0.00 0.00 80 1021.4
20260507102042 53 0 0.0 0.0 0.00 0.00 0.00 79 1021.4
20260507101550 53 0 0.0 0.0 0.00 0.00 0.00 79 1021.4
20260507101041 53 0 0.0 0.0 0.00 0.00 0.00 79 1021.5
20260507100541 53 0 0.0 0.0 0.00 0.00 0.00 80 1021.5
20260507100047 53 0 0.0 1.0 0.00 0.00 0.00 80 1021.5
20260507095539 53 0 0.0 1.0 0.00 0.00 0.00 79 1021.5
20260507095038 53 150 0.0 0.0 0.00 0.00 0.00 80 1021.6
20260507094550 53 0 0.0 0.0 0.00 0.00 0.00 80 1021.7
20260507094045 53 0 0.0 0.0 0.00 0.00 0.00 80 1021.6
20260507093541 53 0 0.0 1.0 0.00 0.00 0.00 80 1021.8
20260507093051 53 0 0.0 1.0 0.00 0.00 0.00 80 1021.8
20260507092538 53 0 0.0 1.0 0.00 0.00 0.00 80 1021.8
20260507092037 53 0 0.0 0.0 0.00 0.00 0.00 80 1021.9
20260507091601 53 0 0.0 0.0 0.00 0.00 0.00 80 1021.9
20260507091042 53 0 0.0 0.0 0.00 0.00 0.00 80 1021.9
20260507090542 53 0 0.0 0.0 0.00 0.00 0.00 80 1021.9
20260507090051 53 0 0.0 0.0 0.00 0.00 0.00 80 1021.9
20260507085541 53 0 0.0 0.0 0.00 0.00 0.00 80 1022.0
20260507085041 53 0 0.0 2.0 0.00 0.00 0.00 80 1021.9
20260507084557 53 0 0.0 2.0 0.00 0.00 0.00 81 1022.0
20260507084041 54 153 0.0 2.0 0.00 0.00 0.00 81 1022.0
20260507083538 54 0 0.0 1.0 0.00 0.00 0.00 80 1022.0
20260507083050 54 0 0.0 1.0 0.00 0.00 0.00 80 1021.9
20260507082542 54 0 0.0 0.0 0.00 0.00 0.00 80 1022.0
20260507082038 54 0 0.0 2.0 0.00 0.00 0.00 80 1021.9
20260507081559 54 0 0.0 2.0 0.00 0.00 0.00 80 1022.0
20260507081043 54 113 0.0 2.0 0.00 0.00 0.00 79 1021.9
20260507080537 54 0 0.0 0.0 0.00 0.00 0.00 80 1022.0
20260507080059 54 0 0.0 0.0 0.00 0.00 0.00 80 1022.0
20260507075538 54 0 0.0 0.0 0.00 0.00 0.00 80 1022.0
20260507075042 54 0 0.0 0.0 0.00 0.00 0.00 80 1021.9
20260507074557 54 0 0.0 0.0 0.00 0.00 0.00 80 1021.9
20260507074047 54 0 0.0 0.0 0.00 0.00 0.00 80 1022.0
20260507073543 54 0 0.0 0.0 0.00 0.00 0.00 80 1021.8